South Paris, Maine, United States (04281)
Lat: 44.22N, Lon: 70.51W
Wx Zone: MEZ012
Local Info
Past Weather Observations for Tuesday, March 24, 2015

NOTE: This archive is for the closest National Weather Service station to South Paris. Information may differ from the station used for current weather conditions.

Click here for Long-term Archive

Time Weather Temperature Dewpoint Humidity Pressure Winds Precip Visibility
23:55
Clear
25°F / -4°C 18°F / -8°C 74% 30.3 in
(1026 mb)
Calm - 10SM
23:35
Clear
23°F / -5°C 16°F / -9°C 74% 30.3 in
(1026 mb)
Calm - 10SM
23:15
Clear
25°F / -4°C 16°F / -9°C 69% 30.3 in
(1026 mb)
Calm - 10SM
22:55
Clear
23°F / -5°C 18°F / -8°C 80% 30.3 in
(1026 mb)
Calm - 10SM
22:35
Clear
25°F / -4°C 18°F / -8°C 74% 30.3 in
(1026 mb)
Calm - 10SM
22:15
Clear
27°F / -3°C 18°F / -8°C 69% 30.3 in
(1026 mb)
Calm - 10SM
21:55
Clear
25°F / -4°C 18°F / -8°C 74% 30.3 in
(1026 mb)
Calm - 10SM
21:35
Clear
25°F / -4°C 18°F / -8°C 74% 30.3 in
(1026 mb)
Calm - 10SM
21:15
Clear
27°F / -3°C 18°F / -8°C 69% 30.3 in
(1026 mb)
Calm - 10SM
20:55
Clear
27°F / -3°C 18°F / -8°C 69% 30.3 in
(1026 mb)
Calm - 10SM
20:35
Clear
27°F / -3°C 18°F / -8°C 69% 30.3 in
(1026 mb)
Calm - 10SM
20:15
Clear
27°F / -3°C 18°F / -8°C 69% 30.3 in
(1026 mb)
Calm - 10SM
19:55
Clear
30°F / -1°C 18°F / -8°C 59% 30.3 in
(1026 mb)
SSE 3.5 mph
(SSE 6 kph)
- 10SM
19:35
Clear
30°F / -1°C 18°F / -8°C 59% 30.27 in
(1025 mb)
Calm - 10SM
19:15
Clear
30°F / -1°C 18°F / -8°C 59% 30.27 in
(1025 mb)
S 4.6 mph
(S 7 kph)
- 10SM
18:55
Clear
32°F / 0°C 18°F / -8°C 55% 30.27 in
(1025 mb)
SSE 5.8 mph
(SSE 9 kph)
- 10SM
18:35
Clear
34°F / 1°C 18°F / -8°C 51% 30.27 in
(1025 mb)
S 6.9 mph
(S 11 kph)
- 10SM
18:15
Clear
36°F / 2°C 18°F / -8°C 48% 30.24 in
(1024 mb)
SSE 8.1 mph
(SSE 13 kph)
- 10SM
17:55
Clear
36°F / 2°C 18°F / -8°C 48% 30.24 in
(1024 mb)
SSE 6.9 mph
(SSE 11 kph)
- 10SM
17:35
Clear
41°F / 5°C 12°F / -11°C 31% 30.24 in
(1024 mb)
SSW 3.5 mph
(SSW 6 kph)
- 10SM
17:15
Clear
41°F / 5°C 12°F / -11°C 31% 30.24 in
(1024 mb)
NNW 3.5 mph
(NNW 6 kph)
- 10SM
16:55
Clear
41°F / 5°C 12°F / -11°C 31% 30.24 in
(1024 mb)
NNW 5.8 mph
(NNW 9 kph)
- 10SM
16:35
Clear
41°F / 5°C 12°F / -11°C 31% 30.24 in
(1024 mb)
NW 9.2 mph
(NW 15 kph)
- 10SM
16:15
Clear
43°F / 6°C 12°F / -11°C 29% 30.21 in
(1023 mb)
NW 8.1 mph
(NW 13 kph)
- 10SM
15:55
Clear
41°F / 5°C 12°F / -11°C 31% 30.21 in
(1023 mb)
NNW 6.9 mph
(NNW 11 kph)
- 10SM
15:35
Clear
41°F / 5°C 12°F / -11°C 31% 30.21 in
(1023 mb)
NW 9.2 mph
(NW 15 kph)
- 10SM
15:15
Clear
41°F / 5°C 12°F / -11°C 31% 30.21 in
(1023 mb)
NW 6.9 mph
(NW 11 kph)
- 10SM
14:55
Clear
39°F / 4°C 12°F / -11°C 33% 30.24 in
(1024 mb)
N 5.8 mph
(N 9 kph)
- 10SM
14:35
Clear
39°F / 4°C 12°F / -11°C 33% 30.24 in
(1024 mb)
NW 10.4 mph
(NW 17 kph)
- 10SM
14:15
Clear
39°F / 4°C 12°F / -11°C 33% 30.24 in
(1024 mb)
Calm - 10SM
13:55
Clear
39°F / 4°C 12°F / -11°C 33% 30.24 in
(1024 mb)
NW 6.9 mph
(NW 11 kph)
- 10SM
13:35
Clear
37°F / 3°C 12°F / -11°C 35% 30.24 in
(1024 mb)
WNW 4.6 mph
(WNW 7 kph)
- 10SM
13:15
Clear
37°F / 3°C 10°F / -12°C 33% 30.24 in
(1024 mb)
NNE 3.5 mph
(NNE 6 kph)
- 10SM
12:55
Clear
37°F / 3°C 12°F / -11°C 35% 30.24 in
(1024 mb)
WNW 5.8 mph
(WNW 9 kph)
- 10SM
12:35
Clear
37°F / 3°C 12°F / -11°C 35% 30.27 in
(1025 mb)
SSW 8.1 mph
(SSW 13 kph)
- 10SM
12:15
Clear
36°F / 2°C 12°F / -11°C 38% 30.27 in
(1025 mb)
Calm - 10SM
11:55
Clear
36°F / 2°C 12°F / -11°C 38% 30.27 in
(1025 mb)
Calm - 10SM
11:35
Clear
34°F / 1°C 10°F / -12°C 38% 30.27 in
(1025 mb)
NW 4.6 mph
(NW 7 kph)
- 10SM
11:15
Clear
32°F / 0°C 10°F / -12°C 40% 30.27 in
(1025 mb)
Calm - 10SM
10:55
Clear
30°F / -1°C 10°F / -12°C 43% 30.27 in
(1025 mb)
Calm - 10SM
10:35
Clear
30°F / -1°C 9°F / -13°C 40% 30.3 in
(1026 mb)
Calm - 10SM
10:15
Clear
30°F / -1°C 9°F / -13°C 40% 30.3 in
(1026 mb)
Calm - 10SM
09:55
Clear
28°F / -2°C 9°F / -13°C 43% 30.3 in
(1026 mb)
NE 4.6 mph
(NE 7 kph)
- 10SM
09:35
Clear
27°F / -3°C 9°F / -13°C 46% 30.3 in
(1026 mb)
NE 3.5 mph
(NE 6 kph)
- 10SM
09:15
Clear
27°F / -3°C 9°F / -13°C 46% 30.3 in
(1026 mb)
Calm - 10SM
08:55
Clear
27°F / -3°C 9°F / -13°C 46% 30.3 in
(1026 mb)
Calm - 10SM
08:35
Clear
25°F / -4°C 9°F / -13°C 50% 30.3 in
(1026 mb)
Calm - 10SM
08:15
Clear
21°F / -6°C 7°F / -14°C 54% 30.3 in
(1026 mb)
Calm - 10SM
07:55
Clear
19°F / -7°C 9°F / -13°C 63% 30.3 in
(1026 mb)
Calm - 10SM
07:35
Clear
16°F / -9°C 5°F / -15°C 62% 30.3 in
(1026 mb)
Calm - 10SM
07:15
Clear
12°F / -11°C 5°F / -15°C 73% 30.27 in
(1025 mb)
NNE 3.5 mph
(NNE 6 kph)
- 10SM
06:55
Clear
10°F / -12°C 3°F / -16°C 72% 30.27 in
(1025 mb)
Calm - 10SM
06:35
Clear
9°F / -13°C 1°F / -17°C 72% 30.27 in
(1025 mb)
N 3.5 mph
(N 6 kph)
- 10SM
06:15
Clear
7°F / -14°C 1°F / -17°C 78% 30.27 in
(1025 mb)
Calm - 10SM
05:55
Clear
7°F / -14°C 1°F / -17°C 78% 30.27 in
(1025 mb)
Calm - 10SM
05:35
Clear
7°F / -14°C 3°F / -16°C 85% 30.27 in
(1025 mb)
Calm - 10SM
05:15
Clear
7°F / -14°C °F / -18°C 72% 30.27 in
(1025 mb)
Calm - 10SM
04:55
Clear
9°F / -13°C 1°F / -17°C 72% 30.24 in
(1024 mb)
Calm - 10SM
04:35
Clear
12°F / -11°C 3°F / -16°C 67% 30.24 in
(1024 mb)
Calm - 10SM
04:15
Clear
9°F / -13°C 3°F / -16°C 78% 30.24 in
(1024 mb)
N 3.5 mph
(N 6 kph)
- 10SM
03:55
Clear
10°F / -12°C 1°F / -17°C 67% 30.24 in
(1024 mb)
Calm - 10SM
03:35
Clear
12°F / -11°C 7°F / -14°C 79% 30.24 in
(1024 mb)
Calm - 10SM
03:15
Clear
9°F / -13°C 1°F / -17°C 72% 30.21 in
(1023 mb)
Calm - 10SM
02:55
Clear
10°F / -12°C 3°F / -16°C 72% 30.21 in
(1023 mb)
Calm - 10SM
02:35
Clear
9°F / -13°C 1°F / -17°C 72% 30.21 in
(1023 mb)
Calm - 10SM
02:15
Clear
10°F / -12°C 3°F / -16°C 72% 30.21 in
(1023 mb)
Calm - 10SM
01:55
Clear
10°F / -12°C 3°F / -16°C 72% 30.21 in
(1023 mb)
Calm - 10SM
01:35
Clear
9°F / -13°C 1°F / -17°C 72% 30.21 in
(1023 mb)
Calm - 10SM
01:15
Clear
12°F / -11°C 3°F / -16°C 67% 30.21 in
(1023 mb)
Calm - 10SM
00:55
Clear
10°F / -12°C 1°F / -17°C 67% 30.21 in
(1023 mb)
Calm - 10SM
00:35
Clear
12°F / -11°C 5°F / -15°C 73% 30.21 in
(1023 mb)
Calm - 10SM
00:15
Clear
12°F / -11°C 1°F / -17°C 62% 30.21 in
(1023 mb)
S 3.5 mph
(S 6 kph)
- 10SM
Time Weather Temperature Dewpoint Humidity Pressure Winds Precip Visibility


Weather for websites

WeatherForYou.com, LLC is not responsible for any damages or problems caused by this service. Current weather conditions are obtained from the closest station including government and personal stations which may have varying degrees of accuracy. Weather forecasts are derived from the NOAA NDFD. Like all things, this site belongs to Jesus Christ... He just trusts me to maintain it. If you have any questions or comments email webmaster@weatherforyou.com

Copyright © 2015, WeatherForYou.com LLC. All rights reserved.